Home > Time Zones > World Clock > Weather > Norway > Tau > Past weeks

Flag for Norway Weather past 2 weeks in Tau, Norway

Now
54 °F

Partly sunny.


Feels Like: 54 °F
Forecast: 44 / 48 °F
Wind: 2 mph from North

Location: Stavanger / Sola

Current Time: May 5, 2015 at 9:27:02 AM

Latest Report: May 5, 2015 at 8:50 AM


Visibility: N/A

Pressure: 29.56 "Hg

Humidity: 63%

Dew point: 41 °F

Location of TauLocation

Historic Weather in Tau — Graph

°F

Tau temperature yesterday

Maximum temperature yesterday: 54 °F (at 1:50 PM)
Minimum temperature yesterday: 48 °F (at 7:50 AM)
Average temperature yesterday: 51 °F

Past Weeks' High & Low Weather Summary

 TemperatureHumidityPressure
High61 °F (Apr 20, 11:20 AM)100% (Apr 20, 8:20 PM)30.45 "Hg (Apr 20, 8:20 PM)
Low34 °F (May 3, 4:50 AM)32% (Apr 28, 5:20 PM)29.30 "Hg (Apr 25, 1:50 PM)
Average45 °F77%29.84 "Hg
* Reported Apr 20 7:20 AM — May 5 7:50 AM, Tau, Weather by CustomWeather, © 2015

Note: Actual official high and low records may vary slightly from our data, if they occured in-between our weather recording intervals... More about our weather records

Advertising

Tau weather history for previous 24 hours

 ConditionsComfort  
Time TempWeatherWind HumidityBarometerVisibility
7:50 AM
Tue, May 5
50 °FPartly sunny.3 mph71%29.59 "HgN/A
7:20 AM46 °FPartly sunny.3 mph87%29.59 "HgN/A
6:50 AM45 °FPartly sunny.6 mph93%29.59 "HgN/A
6:20 AM43 °FPassing clouds.1 mph100%29.62 "HgN/A
5:50 AM43 °FPassing clouds.2 mph100%29.62 "HgN/A
4:50 AM43 °FPassing clouds.3 mph93%29.65 "HgN/A
3:50 AM45 °FPassing clouds.No wind93%29.65 "HgN/A
2:50 AM45 °FPassing clouds.2 mph87%29.65 "HgN/A
1:50 AM45 °FPassing clouds.5 mph87%29.68 "HgN/A
12:50 AM46 °FPassing clouds.6 mph93%29.68 "HgN/A
11:50 PM
Mon, May 4
48 °FPassing clouds.9 mph94%29.65 "HgN/A
10:50 PM48 °FPassing clouds.10 mph94%29.65 "HgN/A
10:20 PM48 °FPartly sunny.10 mph94%29.65 "Hg5 mi
9:50 PM48 °FPartly sunny.13 mph94%29.65 "Hg6 mi
9:20 PM50 °FPartly sunny.13 mph88%29.62 "HgN/A
8:50 PM50 °FPartly sunny.14 mph88%29.62 "HgN/A
8:20 PM52 °FPartly sunny.14 mph82%29.59 "HgN/A
7:50 PM52 °FPartly sunny.15 mph82%29.59 "HgN/A
7:20 PM54 °FBroken clouds.15 mph77%29.59 "HgN/A
6:50 PM54 °FBroken clouds.18 mph77%29.56 "HgN/A
6:20 PM52 °FBroken clouds.16 mph82%29.56 "HgN/A
5:50 PM54 °FPartly sunny.18 mph82%29.56 "HgN/A
5:20 PM54 °FPartly sunny.16 mph82%29.56 "HgN/A
4:50 PM54 °FBroken clouds.13 mph77%29.53 "HgN/A
4:20 PM54 °FPartly sunny.12 mph77%29.53 "HgN/A
3:50 PM52 °FPartly sunny.13 mph82%29.53 "HgN/A
3:20 PM52 °FPartly sunny.13 mph77%29.53 "HgN/A
2:50 PM52 °FPartly sunny.12 mph77%29.53 "HgN/A
2:20 PM54 °FLight rain. Partly sunny.12 mph67%29.50 "HgN/A
1:50 PM54 °FPartly sunny.13 mph67%29.50 "HgN/A
1:20 PM52 °FPartly sunny.14 mph72%29.47 "HgN/A
12:50 PM52 °FPartly sunny.12 mph67%29.47 "HgN/A
12:20 PM52 °FPartly sunny.14 mph67%29.47 "HgN/A
11:50 AM52 °FPartly sunny.14 mph67%29.47 "HgN/A
11:20 AM52 °FPartly sunny.13 mph62%29.45 "HgN/A
10:50 AM52 °FPartly sunny.15 mph62%29.45 "HgN/A
10:20 AM50 °FPartly sunny.10 mph67%29.45 "HgN/A
9:50 AM50 °FPartly sunny.10 mph67%29.42 "HgN/A
9:20 AM50 °FLight rain. Partly sunny.13 mph67%29.42 "HgN/A
Weather by CustomWeather, © 2015

See weather overviewHow to use our weather pages